Year,Month,Day,Hour,Minute,Value (Times are PST for temperature in C)
2013,04,26,00,00,9.50
2013,04,26,00,01,9.50
2013,04,26,00,02,9.40
2013,04,26,00,03,9.40
2013,04,26,00,04,9.40
2013,04,26,00,05,9.30
2013,04,26,00,06,9.30
2013,04,26,00,07,9.30
2013,04,26,00,08,9.20
2013,04,26,00,09,9.20
2013,04,26,00,10,9.20
2013,04,26,00,11,9.20
2013,04,26,00,12,9.10
2013,04,26,00,13,9.10
2013,04,26,00,14,9.10
2013,04,26,00,15,9.10
2013,04,26,00,16,9.00
2013,04,26,00,17,9.00
2013,04,26,00,18,9.00
2013,04,26,00,19,8.90
2013,04,26,00,20,8.90
2013,04,26,00,21,8.90
2013,04,26,00,22,8.90
2013,04,26,00,23,8.90
2013,04,26,00,24,8.80
2013,04,26,00,25,8.80
2013,04,26,00,26,8.80
2013,04,26,00,27,8.80
2013,04,26,00,28,8.80
2013,04,26,00,29,8.80
2013,04,26,00,30,8.80
2013,04,26,00,31,8.80
2013,04,26,00,32,8.80
2013,04,26,00,33,8.80
2013,04,26,00,34,8.80
2013,04,26,00,35,8.80
2013,04,26,00,36,8.80
2013,04,26,00,37,8.80
2013,04,26,00,38,8.70
2013,04,26,00,39,8.70
2013,04,26,00,40,8.70
2013,04,26,00,41,8.70
2013,04,26,00,42,8.70
2013,04,26,00,43,8.70
2013,04,26,00,44,8.70
2013,04,26,00,45,8.60
2013,04,26,00,46,8.60
2013,04,26,00,47,8.60
2013,04,26,00,48,8.60
2013,04,26,00,49,8.60
2013,04,26,00,50,8.60
2013,04,26,00,51,8.60
2013,04,26,00,52,8.60
2013,04,26,00,53,8.60
2013,04,26,00,54,8.50
2013,04,26,00,55,8.50
2013,04,26,00,56,8.50
2013,04,26,00,57,8.50
2013,04,26,00,58,8.40
2013,04,26,00,59,8.40
2013,04,26,01,00,8.40
2013,04,26,01,01,8.40
2013,04,26,01,02,8.40
2013,04,26,01,03,8.40
2013,04,26,01,04,8.40
2013,04,26,01,05,8.50
2013,04,26,01,06,8.50
2013,04,26,01,07,8.60
2013,04,26,01,08,8.60
2013,04,26,01,09,8.60
2013,04,26,01,10,8.60
2013,04,26,01,11,8.60
2013,04,26,01,12,8.70
2013,04,26,01,13,8.70
2013,04,26,01,14,8.70
2013,04,26,01,15,8.70
2013,04,26,01,16,8.80
2013,04,26,01,17,8.80
2013,04,26,01,18,8.80
2013,04,26,01,19,8.80
2013,04,26,01,20,8.80
2013,04,26,01,21,8.80
2013,04,26,01,22,8.80
2013,04,26,01,23,8.70
2013,04,26,01,24,8.70
2013,04,26,01,25,8.70
2013,04,26,01,26,8.70
2013,04,26,01,27,8.70
2013,04,26,01,28,8.70
2013,04,26,01,29,8.60
2013,04,26,01,30,8.60
2013,04,26,01,31,8.60
2013,04,26,01,32,8.60
2013,04,26,01,33,8.50
2013,04,26,01,34,8.50
2013,04,26,01,35,8.40
2013,04,26,01,36,8.40
2013,04,26,01,37,8.40
2013,04,26,01,38,8.30
2013,04,26,01,39,8.30
2013,04,26,01,40,8.30
2013,04,26,01,41,8.30
2013,04,26,01,42,8.30
2013,04,26,01,43,8.20
2013,04,26,01,44,8.20
2013,04,26,01,45,8.20
2013,04,26,01,46,8.20
2013,04,26,01,47,8.20
2013,04,26,01,48,8.10
2013,04,26,01,49,8.10
2013,04,26,01,50,8.10
2013,04,26,01,51,8.10
2013,04,26,01,52,8.00
2013,04,26,01,53,8.00
2013,04,26,01,54,7.90
2013,04,26,01,55,7.90
2013,04,26,01,56,7.90
2013,04,26,01,57,7.90
2013,04,26,01,58,7.90
2013,04,26,01,59,7.90
2013,04,26,02,00,7.90
2013,04,26,02,01,7.90
2013,04,26,02,02,7.90
2013,04,26,02,03,7.90
2013,04,26,02,04,7.90
2013,04,26,02,05,7.90
2013,04,26,02,06,7.90
2013,04,26,02,07,7.90
2013,04,26,02,08,8.00
2013,04,26,02,09,8.00
2013,04,26,02,10,8.10
2013,04,26,02,11,8.10
2013,04,26,02,12,8.10
2013,04,26,02,13,8.10
2013,04,26,02,14,8.10
2013,04,26,02,15,8.10
2013,04,26,02,16,8.10
2013,04,26,02,17,8.10
2013,04,26,02,18,8.00
2013,04,26,02,19,8.00
2013,04,26,02,20,8.00
2013,04,26,02,21,7.90
2013,04,26,02,22,7.90
2013,04,26,02,23,7.90
2013,04,26,02,24,7.90
2013,04,26,02,25,7.80
2013,04,26,02,26,7.80
2013,04,26,02,27,7.80
2013,04,26,02,28,7.80
2013,04,26,02,29,7.80
2013,04,26,02,30,7.70
2013,04,26,02,31,7.70
2013,04,26,02,32,7.70
2013,04,26,02,33,7.70
2013,04,26,02,34,7.70
2013,04,26,02,35,7.60
2013,04,26,02,36,7.60
2013,04,26,02,37,7.60
2013,04,26,02,38,7.60
2013,04,26,02,39,7.60
2013,04,26,02,40,7.50
2013,04,26,02,41,7.50
2013,04,26,02,42,7.40
2013,04,26,02,43,7.40
2013,04,26,02,44,7.40
2013,04,26,02,45,7.40
2013,04,26,02,46,7.40
2013,04,26,02,47,7.40
2013,04,26,02,48,7.40
2013,04,26,02,49,7.30
2013,04,26,02,50,7.30
2013,04,26,02,51,7.30
2013,04,26,02,52,7.30
2013,04,26,02,53,7.20
2013,04,26,02,54,7.20
2013,04,26,02,55,7.20
2013,04,26,02,56,7.20
2013,04,26,02,57,7.20
2013,04,26,02,58,7.20
2013,04,26,02,59,7.20
2013,04,26,03,00,7.20
2013,04,26,03,01,7.20
2013,04,26,03,02,7.20
2013,04,26,03,03,7.30
2013,04,26,03,04,7.30
2013,04,26,03,05,7.30
2013,04,26,03,06,7.30
2013,04,26,03,07,7.30
2013,04,26,03,08,7.30
2013,04,26,03,09,7.30
2013,04,26,03,10,7.30
2013,04,26,03,11,7.30
2013,04,26,03,12,7.30
2013,04,26,03,13,7.30
2013,04,26,03,14,7.30
2013,04,26,03,15,7.30
2013,04,26,03,16,7.30
2013,04,26,03,17,7.30
2013,04,26,03,18,7.30
2013,04,26,03,19,7.30
2013,04,26,03,20,7.30
2013,04,26,03,21,7.20
2013,04,26,03,22,7.20
2013,04,26,03,23,7.20
2013,04,26,03,24,7.20
2013,04,26,03,25,7.20
2013,04,26,03,26,7.20
2013,04,26,03,27,7.20
2013,04,26,03,28,7.20
2013,04,26,03,29,7.20
2013,04,26,03,30,7.20
2013,04,26,03,31,7.10
2013,04,26,03,32,7.10
2013,04,26,03,33,7.10
2013,04,26,03,34,7.10
2013,04,26,03,35,7.00
2013,04,26,03,36,7.00
2013,04,26,03,37,6.90
2013,04,26,03,38,6.90
2013,04,26,03,39,6.80
2013,04,26,03,40,6.80
2013,04,26,03,41,6.80
2013,04,26,03,42,6.70
2013,04,26,03,43,6.70
2013,04,26,03,44,6.70
2013,04,26,03,45,6.70
2013,04,26,03,46,6.60
2013,04,26,03,47,6.60
2013,04,26,03,48,6.60
2013,04,26,03,49,6.60
2013,04,26,03,50,6.60
2013,04,26,03,51,6.60
2013,04,26,03,52,6.60
2013,04,26,03,53,6.60
2013,04,26,03,54,6.60
2013,04,26,03,55,6.70
2013,04,26,03,56,6.70
2013,04,26,03,57,6.70
2013,04,26,03,58,6.80
2013,04,26,03,59,6.80
2013,04,26,04,00,6.80
2013,04,26,04,01,6.80
2013,04,26,04,02,6.90
2013,04,26,04,03,6.90
2013,04,26,04,04,6.90
2013,04,26,04,05,6.90
2013,04,26,04,06,6.90
2013,04,26,04,07,6.90
2013,04,26,04,08,6.90
2013,04,26,04,09,6.90
2013,04,26,04,10,6.80
2013,04,26,04,11,6.80
2013,04,26,04,12,6.80
2013,04,26,04,13,6.80
2013,04,26,04,14,6.70
2013,04,26,04,15,6.70
2013,04,26,04,16,6.70
2013,04,26,04,17,6.70
2013,04,26,04,18,6.80
2013,04,26,04,19,6.80
2013,04,26,04,20,6.80
2013,04,26,04,21,6.80
2013,04,26,04,22,6.80
2013,04,26,04,23,6.70
2013,04,26,04,24,6.70
2013,04,26,04,25,6.70
2013,04,26,04,26,6.70
2013,04,26,04,27,6.70
2013,04,26,04,28,6.70
2013,04,26,04,29,6.70
2013,04,26,04,30,6.70
2013,04,26,04,31,6.70
2013,04,26,04,32,6.70
2013,04,26,04,33,6.70
2013,04,26,04,34,6.70
2013,04,26,04,35,6.70
2013,04,26,04,36,6.70
2013,04,26,04,37,6.70
2013,04,26,04,38,6.70
2013,04,26,04,39,6.70
2013,04,26,04,40,6.60
2013,04,26,04,41,6.60
2013,04,26,04,42,6.60
2013,04,26,04,43,6.60
2013,04,26,04,44,6.60
2013,04,26,04,45,6.60
2013,04,26,04,46,6.60
2013,04,26,04,47,6.60
2013,04,26,04,48,6.60
2013,04,26,04,49,6.60
2013,04,26,04,50,6.60
2013,04,26,04,51,6.60
2013,04,26,04,52,6.60
2013,04,26,04,53,6.60
2013,04,26,04,54,6.50
2013,04,26,04,55,6.60
2013,04,26,04,56,6.60
2013,04,26,04,57,6.50
2013,04,26,04,58,6.50
2013,04,26,04,59,6.50
2013,04,26,05,00,6.50
2013,04,26,05,01,6.50
2013,04,26,05,02,6.50
2013,04,26,05,03,6.40
2013,04,26,05,04,6.40
2013,04,26,05,05,6.40
2013,04,26,05,06,6.40
2013,04,26,05,07,6.40
2013,04,26,05,08,6.40
2013,04,26,05,09,6.40
2013,04,26,05,10,6.40
2013,04,26,05,11,6.40
2013,04,26,05,12,6.40
2013,04,26,05,13,6.40
2013,04,26,05,14,6.40
2013,04,26,05,15,6.40
2013,04,26,05,16,6.40
2013,04,26,05,17,6.30
2013,04,26,05,18,6.30
2013,04,26,05,19,6.30
2013,04,26,05,20,6.30
2013,04,26,05,21,6.30
2013,04,26,05,22,6.30
2013,04,26,05,23,6.30
2013,04,26,05,24,6.30
2013,04,26,05,25,6.30
2013,04,26,05,26,6.30
2013,04,26,05,27,6.30
2013,04,26,05,28,6.30
2013,04,26,05,29,6.30
2013,04,26,05,30,6.30
2013,04,26,05,31,6.30
2013,04,26,05,32,6.30
2013,04,26,05,33,6.30
2013,04,26,05,34,6.30
2013,04,26,05,35,6.30
2013,04,26,05,36,6.20
2013,04,26,05,37,6.20
2013,04,26,05,38,6.20
2013,04,26,05,39,6.20
2013,04,26,05,40,6.20
2013,04,26,05,41,6.20
2013,04,26,05,42,6.20
2013,04,26,05,43,6.20
2013,04,26,05,44,6.20
2013,04,26,05,45,6.10
2013,04,26,05,46,6.10
2013,04,26,05,47,6.10
2013,04,26,05,48,6.10
2013,04,26,05,49,6.10
2013,04,26,05,50,6.10
2013,04,26,05,51,6.10
2013,04,26,05,52,6.10
2013,04,26,05,53,6.10
2013,04,26,05,54,6.00
2013,04,26,05,55,5.90
2013,04,26,05,56,5.90
2013,04,26,05,57,5.80
2013,04,26,05,58,5.80
2013,04,26,05,59,5.70
2013,04,26,06,00,5.70
2013,04,26,06,01,5.60
2013,04,26,06,02,5.60
2013,04,26,06,03,5.50
2013,04,26,06,04,5.50
2013,04,26,06,05,5.50
2013,04,26,06,06,5.50
2013,04,26,06,07,5.50
2013,04,26,06,08,5.50
2013,04,26,06,09,5.50
2013,04,26,06,10,5.60
2013,04,26,06,11,5.60
2013,04,26,06,12,5.60
2013,04,26,06,13,5.60
2013,04,26,06,14,5.60
2013,04,26,06,15,5.70
2013,04,26,06,16,5.70
2013,04,26,06,17,5.70
2013,04,26,06,18,5.70
2013,04,26,06,19,5.70
2013,04,26,06,20,5.70
2013,04,26,06,21,5.70
2013,04,26,06,22,5.80
2013,04,26,06,23,5.80
2013,04,26,06,24,5.80
2013,04,26,06,25,5.80
2013,04,26,06,26,5.80
2013,04,26,06,27,5.80
2013,04,26,06,28,5.70
2013,04,26,06,29,5.70
2013,04,26,06,30,5.70
2013,04,26,06,31,5.70
2013,04,26,06,32,5.70
2013,04,26,06,33,5.70
2013,04,26,06,34,5.70
2013,04,26,06,35,5.70
2013,04,26,06,36,5.70
2013,04,26,06,37,5.70
2013,04,26,06,38,5.70
2013,04,26,06,39,5.70
2013,04,26,06,40,5.70
2013,04,26,06,41,5.70
2013,04,26,06,42,5.60
2013,04,26,06,43,5.60
2013,04,26,06,44,5.70
2013,04,26,06,45,5.60
2013,04,26,06,46,5.60
2013,04,26,06,47,5.60
2013,04,26,06,48,5.60
2013,04,26,06,49,5.60
2013,04,26,06,50,5.50
2013,04,26,06,51,5.50
2013,04,26,06,52,5.40
2013,04,26,06,53,5.40
2013,04,26,06,54,5.40
2013,04,26,06,55,5.40
2013,04,26,06,56,5.30
2013,04,26,06,57,5.30
2013,04,26,06,58,5.30
2013,04,26,06,59,5.30
2013,04,26,07,00,5.30
2013,04,26,07,01,5.20
2013,04,26,07,02,5.20
2013,04,26,07,03,5.20
2013,04,26,07,04,5.20
2013,04,26,07,05,5.20
2013,04,26,07,06,5.20
2013,04,26,07,07,5.20
2013,04,26,07,08,5.20
2013,04,26,07,09,5.20
2013,04,26,07,10,5.20
2013,04,26,07,11,5.20
2013,04,26,07,12,5.20
2013,04,26,07,13,5.20
2013,04,26,07,14,5.20
2013,04,26,07,15,5.20
2013,04,26,07,16,5.20
2013,04,26,07,17,5.20
2013,04,26,07,18,5.20
2013,04,26,07,19,5.20
2013,04,26,07,20,5.20
2013,04,26,07,21,5.20
2013,04,26,07,22,5.20
2013,04,26,07,23,5.20
2013,04,26,07,24,5.20
2013,04,26,07,25,5.20
2013,04,26,07,26,5.20
2013,04,26,07,27,5.20
2013,04,26,07,28,5.20
2013,04,26,07,29,5.20
2013,04,26,07,30,5.20
2013,04,26,07,31,5.20
2013,04,26,07,32,5.20
2013,04,26,07,33,5.20
2013,04,26,07,34,5.20
2013,04,26,07,35,5.30
2013,04,26,07,36,5.30
2013,04,26,07,37,5.30
2013,04,26,07,38,5.30
2013,04,26,07,39,5.40
2013,04,26,07,40,5.40
2013,04,26,07,41,5.50
2013,04,26,07,42,5.60
2013,04,26,07,43,5.60
2013,04,26,07,44,5.70
2013,04,26,07,45,5.70
2013,04,26,07,46,5.70
2013,04,26,07,47,5.80
2013,04,26,07,48,5.80
2013,04,26,07,49,5.80
2013,04,26,07,50,5.90
2013,04,26,07,51,5.90
2013,04,26,07,52,5.90
2013,04,26,07,53,6.00
2013,04,26,07,54,6.10
2013,04,26,07,55,6.10
2013,04,26,07,56,6.20
2013,04,26,07,57,6.20
2013,04,26,07,58,6.20
2013,04,26,07,59,6.20
2013,04,26,08,00,6.30
2013,04,26,08,01,6.30
2013,04,26,08,02,6.30
2013,04,26,08,03,6.30
2013,04,26,08,04,6.30
2013,04,26,08,05,6.30
2013,04,26,08,06,6.30
2013,04,26,08,07,6.40
2013,04,26,08,08,6.40
2013,04,26,08,09,6.40
2013,04,26,08,10,6.40
2013,04,26,08,11,6.40
2013,04,26,08,12,6.40
2013,04,26,08,13,6.50
2013,04,26,08,14,6.50
2013,04,26,08,15,6.50
2013,04,26,08,16,6.50
2013,04,26,08,17,6.60
2013,04,26,08,18,6.60
2013,04,26,08,19,6.60
2013,04,26,08,20,6.60
2013,04,26,08,21,6.60
2013,04,26,08,22,6.70
2013,04,26,08,23,6.70
2013,04,26,08,24,6.70
2013,04,26,08,25,6.70
2013,04,26,08,26,6.80
2013,04,26,08,27,6.80
2013,04,26,08,28,6.80
2013,04,26,08,29,6.80
2013,04,26,08,30,6.80
2013,04,26,08,31,6.90
2013,04,26,08,32,6.90
2013,04,26,08,33,6.90
2013,04,26,08,34,6.90
2013,04,26,08,35,7.00
2013,04,26,08,36,7.00
2013,04,26,08,37,7.00
2013,04,26,08,38,7.10
2013,04,26,08,39,7.10
2013,04,26,08,40,7.20
2013,04,26,08,41,7.20
2013,04,26,08,42,7.20
2013,04,26,08,43,7.20
2013,04,26,08,44,7.30
2013,04,26,08,45,7.30
2013,04,26,08,46,7.40
2013,04,26,08,47,7.40
2013,04,26,08,48,7.50
2013,04,26,08,49,7.50
2013,04,26,08,50,7.60
2013,04,26,08,51,7.60
2013,04,26,08,52,7.70
2013,04,26,08,53,7.80
2013,04,26,08,54,7.80
2013,04,26,08,55,7.90
2013,04,26,08,56,7.90
2013,04,26,08,57,8.00
2013,04,26,08,58,8.10
2013,04,26,08,59,8.20
2013,04,26,09,00,8.30
2013,04,26,09,01,8.40
2013,04,26,09,02,8.50
2013,04,26,09,03,8.60
2013,04,26,09,04,8.80
2013,04,26,09,05,8.90
2013,04,26,09,06,9.10
2013,04,26,09,07,9.20
2013,04,26,09,08,9.30
2013,04,26,09,09,9.40
2013,04,26,09,10,9.50
2013,04,26,09,11,9.60
2013,04,26,09,12,9.70
2013,04,26,09,13,9.70
2013,04,26,09,14,9.80
2013,04,26,09,15,9.90
2013,04,26,09,16,9.90
2013,04,26,09,17,10.00
2013,04,26,09,18,10.10
2013,04,26,09,19,10.10
2013,04,26,09,20,10.20
2013,04,26,09,21,10.20
2013,04,26,09,22,10.20
2013,04,26,09,23,10.30
2013,04,26,09,24,10.30
2013,04,26,09,25,10.30
2013,04,26,09,26,10.40
2013,04,26,09,27,10.40
2013,04,26,09,28,10.50
2013,04,26,09,29,10.50
2013,04,26,09,30,10.50
2013,04,26,09,31,10.60
2013,04,26,09,32,10.60
2013,04,26,09,33,10.60
2013,04,26,09,34,10.70
2013,04,26,09,35,10.70
2013,04,26,09,36,10.70
2013,04,26,09,37,10.70
2013,04,26,09,38,10.80
2013,04,26,09,39,10.80
2013,04,26,09,40,10.80
2013,04,26,09,41,10.80
2013,04,26,09,42,10.90
2013,04,26,09,43,10.90
2013,04,26,09,44,10.90
2013,04,26,09,45,11.00
2013,04,26,09,46,11.00
2013,04,26,09,47,11.10
2013,04,26,09,48,11.10
2013,04,26,09,49,11.10
2013,04,26,09,50,11.10
2013,04,26,09,51,11.20
2013,04,26,09,52,11.20
2013,04,26,09,53,11.20
2013,04,26,09,54,11.30
2013,04,26,09,55,11.30
2013,04,26,09,56,11.30
2013,04,26,09,57,11.30
2013,04,26,09,58,11.40
2013,04,26,09,59,11.50
2013,04,26,10,00,11.50
2013,04,26,10,01,11.60
2013,04,26,10,02,11.60
2013,04,26,10,03,11.60
2013,04,26,10,04,11.70
2013,04,26,10,05,11.70
2013,04,26,10,06,11.80
2013,04,26,10,07,11.90
2013,04,26,10,08,11.90
2013,04,26,10,09,12.00
2013,04,26,10,10,12.00
2013,04,26,10,11,12.10
2013,04,26,10,12,12.10
2013,04,26,10,13,12.20
2013,04,26,10,14,12.30
2013,04,26,10,15,12.30
2013,04,26,10,16,12.40
2013,04,26,10,17,12.40
2013,04,26,10,18,12.50
2013,04,26,10,19,12.50
2013,04,26,10,20,12.60
2013,04,26,10,21,12.70
2013,04,26,10,22,12.70
2013,04,26,10,23,12.80
2013,04,26,10,24,12.80
2013,04,26,10,25,12.90
2013,04,26,10,26,13.00
2013,04,26,10,27,13.00
2013,04,26,10,28,13.10
2013,04,26,10,29,13.10
2013,04,26,10,30,13.10
2013,04,26,10,31,13.20
2013,04,26,10,32,13.20
2013,04,26,10,33,13.30
2013,04,26,10,34,13.30
2013,04,26,10,35,13.30
2013,04,26,10,36,13.30
2013,04,26,10,37,13.40
2013,04,26,10,38,13.40
2013,04,26,10,39,13.40
2013,04,26,10,40,13.40
2013,04,26,10,41,13.40
2013,04,26,10,42,13.50
2013,04,26,10,43,13.50
2013,04,26,10,44,13.50
2013,04,26,10,45,13.50
2013,04,26,10,46,13.50
2013,04,26,10,47,13.50
2013,04,26,10,48,13.50
2013,04,26,10,49,13.50
2013,04,26,10,50,13.40
2013,04,26,10,51,13.40
2013,04,26,10,52,13.40
2013,04,26,10,53,13.40
2013,04,26,10,54,13.40
2013,04,26,10,55,13.30
2013,04,26,10,56,13.30
2013,04,26,10,57,13.30
2013,04,26,10,58,13.30
2013,04,26,10,59,13.30
2013,04,26,11,00,13.30
2013,04,26,11,01,13.30
2013,04,26,11,02,13.30
2013,04,26,11,03,13.30
2013,04,26,11,04,13.30
2013,04,26,11,05,13.40
2013,04,26,11,06,13.40
2013,04,26,11,07,13.40
2013,04,26,11,08,13.40
2013,04,26,11,09,13.40
2013,04,26,11,10,13.50
2013,04,26,11,11,13.50
2013,04,26,11,12,13.50
2013,04,26,11,13,13.60
2013,04,26,11,14,13.60
2013,04,26,11,15,13.60
2013,04,26,11,16,13.60
2013,04,26,11,17,13.60
2013,04,26,11,18,13.60
2013,04,26,11,19,13.50
2013,04,26,11,20,13.40
2013,04,26,11,21,13.40
2013,04,26,11,22,13.30
2013,04,26,11,23,13.30
2013,04,26,11,24,13.30
2013,04,26,11,25,13.30
2013,04,26,11,26,13.30
2013,04,26,11,27,13.40
2013,04,26,11,28,13.40
2013,04,26,11,29,13.50
2013,04,26,11,30,13.50
2013,04,26,11,31,13.60
2013,04,26,11,32,13.60
2013,04,26,11,33,13.60
2013,04,26,11,34,13.60
2013,04,26,11,35,13.70
2013,04,26,11,36,13.70
2013,04,26,11,37,13.70
2013,04,26,11,38,13.70
2013,04,26,11,39,13.70
2013,04,26,11,40,13.70
2013,04,26,11,41,13.80
2013,04,26,11,42,13.80
2013,04,26,11,43,13.80
2013,04,26,11,44,13.80
2013,04,26,11,45,13.90
2013,04,26,11,46,13.90
2013,04,26,11,47,13.90
2013,04,26,11,48,13.90
2013,04,26,11,49,14.00
2013,04,26,11,50,14.00
2013,04,26,11,51,14.10
2013,04,26,11,52,14.10
2013,04,26,11,53,14.20
2013,04,26,11,54,14.20
2013,04,26,11,55,14.20
2013,04,26,11,56,14.30
2013,04,26,11,57,14.20
2013,04,26,11,58,14.20
2013,04,26,11,59,14.20
2013,04,26,12,00,14.20
2013,04,26,12,01,14.20
2013,04,26,12,02,14.20
2013,04,26,12,03,14.30
2013,04,26,12,04,14.30
2013,04,26,12,05,14.30
2013,04,26,12,06,14.30
2013,04,26,12,07,14.30
2013,04,26,12,08,14.30
2013,04,26,12,09,14.30
2013,04,26,12,10,14.30
2013,04,26,12,11,14.30
2013,04,26,12,12,14.30
2013,04,26,12,13,14.30
2013,04,26,12,14,14.30
2013,04,26,12,15,14.40
2013,04,26,12,16,14.40
2013,04,26,12,17,14.40
2013,04,26,12,18,14.40
2013,04,26,12,19,14.50
2013,04,26,12,20,14.50
2013,04,26,12,21,14.50
2013,04,26,12,22,14.60
2013,04,26,12,23,14.60
2013,04,26,12,24,14.60
2013,04,26,12,25,14.70
2013,04,26,12,26,14.70
2013,04,26,12,27,14.70
2013,04,26,12,28,14.70
2013,04,26,12,29,14.80
2013,04,26,12,30,14.80
2013,04,26,12,31,14.90
2013,04,26,12,32,15.00
2013,04,26,12,33,15.00
2013,04,26,12,34,15.00
2013,04,26,12,35,15.00
2013,04,26,12,36,15.00
2013,04,26,12,37,15.00
2013,04,26,12,38,15.00
2013,04,26,12,39,15.00
2013,04,26,12,40,15.00
2013,04,26,12,41,15.00
2013,04,26,12,42,15.00
2013,04,26,12,43,15.00
2013,04,26,12,44,15.00
2013,04,26,12,45,15.00
2013,04,26,12,46,15.00
2013,04,26,12,47,15.00
2013,04,26,12,48,15.00
2013,04,26,12,49,15.00
2013,04,26,12,50,15.00
2013,04,26,12,51,15.00
2013,04,26,12,52,15.00
2013,04,26,12,53,15.00
2013,04,26,12,54,15.00
2013,04,26,12,55,15.00
2013,04,26,12,56,15.00
2013,04,26,12,57,15.10
2013,04,26,12,58,15.20
2013,04,26,12,59,15.20
2013,04,26,13,00,15.20
2013,04,26,13,01,15.30
2013,04,26,13,02,15.30
2013,04,26,13,03,15.30
2013,04,26,13,04,15.30
2013,04,26,13,05,15.40
2013,04,26,13,06,15.30
2013,04,26,13,07,15.30
2013,04,26,13,08,15.30
2013,04,26,13,09,15.30
2013,04,26,13,10,15.30
2013,04,26,13,11,15.30
2013,04,26,13,12,15.30
2013,04,26,13,13,15.30
2013,04,26,13,14,15.30
2013,04,26,13,15,15.20
2013,04,26,13,16,15.30
2013,04,26,13,17,15.30
2013,04,26,13,18,15.30
2013,04,26,13,19,15.30
2013,04,26,13,20,15.40
2013,04,26,13,21,15.40
2013,04,26,13,22,15.50
2013,04,26,13,23,15.50
2013,04,26,13,24,15.50
2013,04,26,13,25,15.60
2013,04,26,13,26,15.60
2013,04,26,13,27,15.60
2013,04,26,13,28,15.70
2013,04,26,13,29,15.70
2013,04,26,13,30,15.70
2013,04,26,13,31,15.80
2013,04,26,13,32,15.80
2013,04,26,13,33,15.80
2013,04,26,13,34,15.80
2013,04,26,13,35,15.80
2013,04,26,13,36,15.80
2013,04,26,13,37,15.90
2013,04,26,13,38,15.90
2013,04,26,13,39,16.00
2013,04,26,13,40,16.00
2013,04,26,13,41,16.10
2013,04,26,13,42,16.10
2013,04,26,13,43,16.10
2013,04,26,13,44,16.10
2013,04,26,13,45,16.10
2013,04,26,13,46,16.10
2013,04,26,13,47,16.10
2013,04,26,13,48,16.10
2013,04,26,13,49,16.10
2013,04,26,13,50,16.10
2013,04,26,13,51,16.10
2013,04,26,13,52,16.20
2013,04,26,13,53,16.20
2013,04,26,13,54,16.30
2013,04,26,13,55,16.30
2013,04,26,13,56,16.40
2013,04,26,13,57,16.50
2013,04,26,13,58,16.60
2013,04,26,13,59,16.60
2013,04,26,14,00,16.70
2013,04,26,14,01,16.70
2013,04,26,14,02,16.70
2013,04,26,14,03,16.80
2013,04,26,14,04,16.80
2013,04,26,14,05,16.80
2013,04,26,14,06,16.80
2013,04,26,14,07,16.80
2013,04,26,14,08,16.80
2013,04,26,14,09,16.90
2013,04,26,14,10,16.90
2013,04,26,14,11,16.90
2013,04,26,14,12,16.90
2013,04,26,14,13,16.80
2013,04,26,14,14,16.80
2013,04,26,14,15,16.80
2013,04,26,14,16,16.80
2013,04,26,14,17,16.80
2013,04,26,14,18,16.80
2013,04,26,14,19,16.70
2013,04,26,14,20,16.70
2013,04,26,14,21,16.70
2013,04,26,14,22,16.80
2013,04,26,14,23,16.80
2013,04,26,14,24,16.70
2013,04,26,14,25,16.70
2013,04,26,14,26,16.70
2013,04,26,14,27,16.70
2013,04,26,14,28,16.70
2013,04,26,14,29,16.80
2013,04,26,14,30,16.80
2013,04,26,14,31,16.80
2013,04,26,14,32,16.90
2013,04,26,14,33,17.00
2013,04,26,14,34,17.00
2013,04,26,14,35,17.10
2013,04,26,14,36,17.20
2013,04,26,14,37,17.30
2013,04,26,14,38,17.40
2013,04,26,14,39,17.50
2013,04,26,14,40,17.60
2013,04,26,14,41,17.60
2013,04,26,14,42,17.70
2013,04,26,14,43,17.70
2013,04,26,14,44,17.80
2013,04,26,14,45,17.90
2013,04,26,14,46,18.00
2013,04,26,14,47,18.10
2013,04,26,14,48,18.20
2013,04,26,14,49,18.30
2013,04,26,14,50,18.30
2013,04,26,14,51,18.40
2013,04,26,14,52,18.50
2013,04,26,14,53,18.60
2013,04,26,14,54,18.70
2013,04,26,14,55,18.70
2013,04,26,14,56,18.80
2013,04,26,14,57,18.90
2013,04,26,14,58,18.90
2013,04,26,14,59,18.90
2013,04,26,15,00,18.90
2013,04,26,15,01,18.80
2013,04,26,15,02,18.70
2013,04,26,15,03,18.60
2013,04,26,15,04,18.50
2013,04,26,15,05,18.40
2013,04,26,15,06,18.40
2013,04,26,15,07,18.50
2013,04,26,15,08,18.50
2013,04,26,15,09,18.60
2013,04,26,15,10,18.70
2013,04,26,15,11,18.70
2013,04,26,15,12,18.70
2013,04,26,15,13,18.70
2013,04,26,15,14,18.70
2013,04,26,15,15,18.70
2013,04,26,15,16,18.80
2013,04,26,15,17,18.80
2013,04,26,15,18,19.00
2013,04,26,15,19,19.10
2013,04,26,15,20,19.20
2013,04,26,15,21,19.40
2013,04,26,15,22,19.60
2013,04,26,15,23,19.80
2013,04,26,15,24,20.00
2013,04,26,15,25,20.10
2013,04,26,15,26,20.20
2013,04,26,15,27,20.30
2013,04,26,15,28,20.40
2013,04,26,15,29,20.50
2013,04,26,15,30,20.60
2013,04,26,15,31,20.70
2013,04,26,15,32,20.70
2013,04,26,15,33,20.80
2013,04,26,15,34,20.80
2013,04,26,15,35,20.90
2013,04,26,15,36,20.90
2013,04,26,15,37,20.90
2013,04,26,15,38,20.90
2013,04,26,15,39,20.90
2013,04,26,15,40,20.90
2013,04,26,15,41,20.90
2013,04,26,15,42,20.90
2013,04,26,15,43,21.00
2013,04,26,15,44,21.00
2013,04,26,15,45,21.00
2013,04,26,15,46,21.10
2013,04,26,15,47,21.10
2013,04,26,15,48,21.10
2013,04,26,15,49,21.10
2013,04,26,15,50,21.10
2013,04,26,15,51,21.10
2013,04,26,15,52,21.10
2013,04,26,15,53,21.10
2013,04,26,15,54,21.10
2013,04,26,15,55,21.10
2013,04,26,15,56,21.10
2013,04,26,15,57,21.10
2013,04,26,15,58,21.10
2013,04,26,15,59,21.10
2013,04,26,16,00,21.10
2013,04,26,16,01,21.10
2013,04,26,16,02,21.00
2013,04,26,16,03,20.90
2013,04,26,16,04,20.90
2013,04,26,16,05,20.90
2013,04,26,16,06,20.90
2013,04,26,16,07,21.00
2013,04,26,16,08,21.00
2013,04,26,16,09,21.10
2013,04,26,16,10,21.10
2013,04,26,16,11,21.10
2013,04,26,16,12,21.10
2013,04,26,16,13,21.10
2013,04,26,16,14,21.10
2013,04,26,16,15,21.10
2013,04,26,16,16,21.10
2013,04,26,16,17,21.00
2013,04,26,16,18,20.90
2013,04,26,16,19,20.80
2013,04,26,16,20,20.80
2013,04,26,16,21,20.80
2013,04,26,16,22,20.70
2013,04,26,16,23,20.60
2013,04,26,16,24,20.60
2013,04,26,16,25,20.50
2013,04,26,16,26,20.50
2013,04,26,16,27,20.50
2013,04,26,16,28,20.50
2013,04,26,16,29,20.50
2013,04,26,16,30,20.40
2013,04,26,16,31,20.40
2013,04,26,16,32,20.40
2013,04,26,16,33,20.50
2013,04,26,16,34,20.60
2013,04,26,16,35,20.60
2013,04,26,16,36,20.70
2013,04,26,16,37,20.80
2013,04,26,16,38,20.80
2013,04,26,16,39,20.80
2013,04,26,16,40,20.80
2013,04,26,16,41,20.80
2013,04,26,16,42,20.80
2013,04,26,16,43,20.80
2013,04,26,16,44,20.70
2013,04,26,16,45,20.70
2013,04,26,16,46,20.60
2013,04,26,16,47,20.50
2013,04,26,16,48,20.40
2013,04,26,16,49,20.30
2013,04,26,16,50,20.20
2013,04,26,16,51,20.10
2013,04,26,16,52,20.00
2013,04,26,16,53,20.00
2013,04,26,16,54,19.90
2013,04,26,16,55,19.90
2013,04,26,16,56,19.90
2013,04,26,16,57,19.80
2013,04,26,16,58,19.80
2013,04,26,16,59,19.80
2013,04,26,17,00,19.80
2013,04,26,17,01,19.70
2013,04,26,17,02,19.70
2013,04,26,17,03,19.70
2013,04,26,17,04,19.70
2013,04,26,17,05,19.70
2013,04,26,17,06,19.70
2013,04,26,17,07,19.70
2013,04,26,17,08,19.80
2013,04,26,17,09,19.80
2013,04,26,17,10,19.80
2013,04,26,17,11,19.80
2013,04,26,17,12,19.80
2013,04,26,17,13,19.80
2013,04,26,17,14,19.80
2013,04,26,17,15,19.80
2013,04,26,17,16,19.80
2013,04,26,17,17,19.90
2013,04,26,17,18,19.90
2013,04,26,17,19,19.90
2013,04,26,17,20,19.80
2013,04,26,17,21,19.80
2013,04,26,17,22,19.80
2013,04,26,17,23,19.80
2013,04,26,17,24,19.80
2013,04,26,17,25,19.80
2013,04,26,17,26,19.80
2013,04,26,17,27,19.80
2013,04,26,17,28,19.70
2013,04,26,17,29,19.60
2013,04,26,17,30,19.50
2013,04,26,17,31,19.40
2013,04,26,17,32,19.30
2013,04,26,17,33,19.20
2013,04,26,17,34,19.20
2013,04,26,17,35,19.10
2013,04,26,17,36,19.00
2013,04,26,17,37,19.00
2013,04,26,17,38,18.90
2013,04,26,17,39,18.90
2013,04,26,17,40,18.90
2013,04,26,17,41,18.80
2013,04,26,17,42,18.80
2013,04,26,17,43,18.80